Location: Sungai Bunut
(2.6333°N, 113.7333°E)
Time: 15:38:27
(UTC+00:00)

Vanguard 3 - Pass Details

Date: 12 December 2023
Orbit: 508 x 3239 km, 33.4° (Epoch: 28 February)

Event Time Altitude Azimuth Distance (km) Brightness Sun altitude
Rises 19:26:05 0° 312° (NW) 3,461 - -40.3°
Reaches altitude 10° 19:29:07 10° 318° (NW) 2,215 - -39.6°
Maximum altitude 19:33:43 46° 32° (NNE) 765 - -38.6°
Drops below altitude 10° 19:37:17 10° 107° (ESE) 1,723 - -37.8°
Exits shadow 19:37:40 - 109° (ESE) 1,880 9.8 -37.7°
Sets 19:39:22 0° 114° (ESE) 2,595 10.7 -37.4°
